Home   Weather   Santa Cruz de Tenerife   Past weeks

Flag for Spain Past Weather in Santa Cruz de Tenerife, Canary Islands, Spain — Yesterday and Last 2 Weeks

Now
59 °F

Fog.


Feels Like: 58 °F
Forecast: 67 / 71 °F
Wind: 6 mph from Northwest

Location: Tenerife / Los Rodeos

Current Time: Apr 30, 2017 at 12:35:12 am

Latest Report: Apr 30, 2017 at 12:00 am


Visibility: N/A

Pressure: 30.12 "Hg

Humidity: 94%

Dew Point: 57 °F

Location of Santa Cruz de TenerifeLocation

Past Weather in Santa Cruz de Tenerife — Graph

°F

Santa Cruz de Tenerife Temperature Yesterday

Maximum temperature yesterday: 70 °F (at 1:30 pm)
Minimum temperature yesterday: 55 °F (at 6:00 am)
Average temperature yesterday: 62 °F

High & Low Weather Summary for the Past Weeks

 TemperatureHumidityPressure
High90 °F (Apr 17, 1:00 pm)100% (Apr 15, 8:00 am)30.18 "Hg (Apr 15, 8:00 am)
Low54 °F (Apr 20, 7:00 am)13% (Apr 17, 5:00 pm)29.83 "Hg (Apr 27, 4:30 am)
Average64 °F73%30.00 "Hg
* Reported Apr 14 11:00 pm — Apr 29 11:30 pm, Santa Cruz de Tenerife, Weather by CustomWeather, © 2017

Note: Actual official high and low records may vary slightly from our data, if they occured in-between our weather recording intervals... More about our weather records

Advertising

Santa Cruz de Tenerife Weather History for the Previous 24 Hours

Scroll right to see more
 ConditionsComfort  
Time TempWeatherWind HumidityBarometerVisibility
11:30 pm
Sat, Apr 29
59 °FFog.7 mph94%30.12 "HgN/A
11:00 pm59 °FCool.8 mph94%30.09 "HgN/A
10:30 pm59 °FCool.8 mph94%30.09 "HgN/A
10:00 pm59 °FCool.8 mph94%30.09 "HgN/A
9:30 pm59 °FCool.9 mph94%30.07 "HgN/A
9:00 pm61 °FCool.7 mph88%30.07 "HgN/A
8:30 pm61 °FScattered clouds.7 mph94%30.07 "HgN/A
8:06 pm61 °FScattered clouds.8 mph94%30.07 "HgN/A
7:30 pm63 °FScattered clouds.10 mph83%30.04 "HgN/A
7:00 pm63 °FScattered clouds.10 mph83%30.04 "HgN/A
6:30 pm64 °FScattered clouds.13 mph83%30.04 "HgN/A
6:00 pm64 °FScattered clouds.14 mph78%30.04 "HgN/A
5:30 pm64 °FScattered clouds.13 mph78%30.04 "HgN/A
5:00 pm66 °FScattered clouds.15 mph73%30.04 "HgN/A
4:30 pm70 °FScattered clouds.15 mph64%30.04 "HgN/A
4:00 pm68 °FScattered clouds.16 mph69%30.04 "HgN/A
3:30 pm70 °FPartly sunny.16 mph69%30.04 "HgN/A
3:00 pm68 °FPartly sunny.13 mph73%30.04 "HgN/A
1:30 pm70 °FScattered clouds.14 mph64%30.04 "HgN/A
1:00 pm68 °FScattered clouds.12 mph64%30.04 "HgN/A
12:30 pm66 °FScattered clouds.9 mph73%30.04 "HgN/A
12:00 pm64 °FScattered clouds.6 mph78%30.04 "HgN/A
11:00 am66 °FPassing clouds.2 mph78%30.01 "HgN/A
10:30 am66 °FPassing clouds.8 mph73%30.01 "HgN/A
10:00 am64 °FPassing clouds.13 mph78%29.98 "HgN/A
9:30 am63 °FPassing clouds.12 mph83%29.98 "HgN/A
8:35 am57 °FLight rain. Partly sunny.16 mph94%29.98 "Hg6 mi
8:00 am57 °FPartly sunny.8 mph94%29.98 "HgN/A
7:30 am57 °FPartly sunny.8 mph94%29.98 "HgN/A
7:00 am55 °FPassing clouds.5 mph94%29.98 "HgN/A
6:30 am57 °FPassing clouds.8 mph94%29.95 "HgN/A
6:00 am55 °FPassing clouds.3 mph94%29.95 "HgN/A
5:30 am59 °FPassing clouds.6 mph88%29.95 "HgN/A
5:00 am59 °FPartly cloudy.5 mph88%29.95 "HgN/A
4:30 am59 °FPassing clouds.2 mph94%29.95 "HgN/A
4:00 am57 °FCool.No wind94%29.95 "HgN/A
3:30 am57 °FPassing clouds.1 mph100%29.95 "HgN/A
3:00 am59 °FCool.2 mph94%29.95 "HgN/A
2:30 am57 °FCool.3 mph100%29.98 "HgN/A
2:00 am59 °FPassing clouds.7 mph94%29.98 "HgN/A
1:30 am59 °FPartly cloudy.5 mph94%29.98 "HgN/A
1:00 am61 °FPassing clouds.5 mph88%29.98 "HgN/A
12:30 am59 °FCool.9 mph94%29.98 "HgN/A
12:00 am57 °FCool.6 mph94%29.98 "HgN/A
Weather by CustomWeather, © 2017

See weather overviewHow to use our weather pages